TimeCDT,TemperatureF,Dew PointF,Humidity,Sea Level PressureIn,VisibilityMPH,Wind Direction,Wind SpeedMPH,Gust SpeedMPH,PrecipitationIn,Events,Conditions,WindDirDegrees,DateUTC
12:15 AM,26.6,19.4,74,30.03,10.0,East,15.0,-,N/A,,Overcast,90,2013-04-11 05:15:00
12:35 AM,26.6,21.2,80,30.03,10.0,East,11.5,-,N/A,,Overcast,90,2013-04-11 05:35:00
12:55 AM,26.6,21.2,80,30.01,10.0,East,11.5,-,N/A,,Overcast,80,2013-04-11 05:55:00
1:15 AM,26.6,19.4,74,30.01,10.0,ENE,9.2,-,N/A,,Overcast,70,2013-04-11 06:15:00
1:35 AM,26.6,19.4,74,30.00,10.0,East,9.2,-,N/A,,Overcast,80,2013-04-11 06:35:00
1:55 AM,26.6,19.4,74,30.00,10.0,East,9.2,-,N/A,,Overcast,90,2013-04-11 06:55:00
2:15 AM,26.6,19.4,74,30.00,10.0,East,6.9,-,N/A,,Overcast,90,2013-04-11 07:15:00
2:35 AM,26.6,19.4,74,29.98,10.0,East,6.9,-,N/A,,Overcast,100,2013-04-11 07:35:00
2:55 AM,26.6,19.4,74,29.97,10.0,East,9.2,-,N/A,,Overcast,90,2013-04-11 07:55:00
3:15 AM,26.6,17.6,69,29.96,10.0,ENE,9.2,-,N/A,,Overcast,70,2013-04-11 08:15:00
3:35 AM,26.6,19.4,74,29.95,10.0,East,5.8,-,N/A,,Overcast,90,2013-04-11 08:35:00
3:55 AM,26.6,19.4,74,29.94,10.0,East,6.9,-,N/A,,Overcast,90,2013-04-11 08:55:00
4:15 AM,26.6,19.4,74,29.94,10.0,East,5.8,-,N/A,,Overcast,80,2013-04-11 09:15:00
4:35 AM,26.6,19.4,74,29.93,10.0,East,8.1,-,N/A,,Overcast,90,2013-04-11 09:35:00
4:55 AM,26.6,21.2,80,29.92,10.0,East,6.9,-,N/A,,Overcast,100,2013-04-11 09:55:00
5:15 AM,26.6,23.0,86,29.91,10.0,SE,3.5,-,N/A,,Overcast,130,2013-04-11 10:15:00
5:35 AM,26.6,24.8,93,29.89,10.0,Calm,Calm,-,N/A,,Overcast,0,2013-04-11 10:35:00
5:55 AM,26.6,24.8,93,29.88,10.0,NNW,5.8,-,N/A,,Overcast,340,2013-04-11 10:55:00
6:15 AM,26.6,24.8,93,29.88,10.0,NNW,8.1,-,N/A,,Overcast,330,2013-04-11 11:15:00
6:35 AM,26.6,24.8,93,29.87,10.0,NNW,9.2,-,N/A,,Overcast,330,2013-04-11 11:35:00
6:55 AM,26.6,24.8,93,29.87,10.0,NNW,8.1,-,N/A,,Overcast,340,2013-04-11 11:55:00
7:15 AM,26.6,24.8,93,29.88,10.0,NNW,6.9,-,N/A,,Overcast,340,2013-04-11 12:15:00
7:35 AM,26.6,24.8,93,29.88,10.0,NNW,5.8,-,N/A,,Overcast,330,2013-04-11 12:35:00
7:55 AM,26.6,24.8,93,29.89,10.0,North,5.8,-,N/A,,Overcast,350,2013-04-11 12:55:00
8:15 AM,28.4,24.8,86,29.89,10.0,NNW,8.1,-,N/A,,Overcast,340,2013-04-11 13:15:00
8:35 AM,28.4,24.8,86,29.89,10.0,North,6.9,-,N/A,,Overcast,350,2013-04-11 13:35:00
8:55 AM,30.2,24.8,80,29.89,10.0,North,9.2,-,N/A,,Overcast,350,2013-04-11 13:55:00
9:15 AM,30.2,24.8,80,29.89,10.0,NNE,6.9,-,N/A,,Overcast,20,2013-04-11 14:15:00
9:35 AM,32.0,24.8,75,29.88,10.0,NE,9.2,-,N/A,,Overcast,40,2013-04-11 14:35:00
9:55 AM,32.0,26.6,80,29.87,10.0,NE,6.9,-,N/A,,Overcast,40,2013-04-11 14:55:00
10:15 AM,32.0,24.8,75,29.87,10.0,NE,5.8,-,N/A,,Overcast,40,2013-04-11 15:15:00
10:35 AM,32.0,24.8,75,29.87,10.0,NE,8.1,-,N/A,,Overcast,40,2013-04-11 15:35:00
10:55 AM,32.0,24.8,75,29.87,10.0,North,5.8,-,N/A,,Overcast,10,2013-04-11 15:55:00
11:15 AM,33.8,24.8,70,29.87,10.0,North,8.1,-,N/A,,Overcast,350,2013-04-11 16:15:00
11:35 AM,33.8,26.6,75,29.87,10.0,NNW,12.7,17.3,N/A,,Overcast,340,2013-04-11 16:35:00
12:15 PM,35.6,26.6,70,29.86,10.0,North,12.7,-,N/A,,Overcast,350,2013-04-11 17:15:00
12:35 PM,37.4,26.6,65,29.86,10.0,NNE,11.5,16.1,N/A,,Overcast,20,2013-04-11 17:35:00
12:55 PM,37.4,24.8,60,29.85,10.0,NNE,12.7,18.4,N/A,,Overcast,20,2013-04-11 17:55:00
1:15 PM,37.4,23.0,56,29.84,10.0,North,-9999.0,-,N/A,,Overcast,0,2013-04-11 18:15:00
1:35 PM,37.4,19.4,48,29.84,10.0,North,-9999.0,-,N/A,,Overcast,0,2013-04-11 18:35:00
1:55 PM,37.4,19.4,48,29.83,10.0,NNE,12.7,-,N/A,,Overcast,30,2013-04-11 18:55:00
2:15 PM,37.4,21.2,52,29.83,10.0,NE,13.8,-,N/A,,Overcast,50,2013-04-11 19:15:00
2:35 PM,37.4,21.2,52,29.84,10.0,NE,18.4,-,N/A,,Overcast,40,2013-04-11 19:35:00
2:55 PM,37.4,21.2,52,29.83,10.0,NE,16.1,20.7,N/A,,Overcast,50,2013-04-11 19:55:00
3:15 PM,37.4,23.0,56,29.83,10.0,NNE,15.0,20.7,N/A,,Overcast,30,2013-04-11 20:15:00
3:35 PM,37.4,24.8,60,29.83,10.0,NNE,17.3,20.7,N/A,,Overcast,20,2013-04-11 20:35:00
3:55 PM,37.4,23.0,56,29.83,10.0,NNE,13.8,-,N/A,,Overcast,20,2013-04-11 20:55:00
4:15 PM,37.4,23.0,56,29.82,10.0,NE,16.1,21.9,N/A,,Overcast,40,2013-04-11 21:15:00
4:35 PM,35.6,23.0,60,29.82,10.0,North,-9999.0,-,N/A,,Scattered Clouds,0,2013-04-11 21:35:00
4:55 PM,35.6,24.8,65,29.83,10.0,North,-9999.0,-,N/A,,Scattered Clouds,0,2013-04-11 21:55:00
5:15 PM,35.6,23.0,60,29.83,10.0,North,15.0,-,N/A,,Partly Cloudy,10,2013-04-11 22:15:00
5:35 PM,35.6,24.8,65,29.84,10.0,NNE,17.3,21.9,N/A,,Partly Cloudy,20,2013-04-11 22:35:00
5:55 PM,35.6,23.0,60,29.84,10.0,NNE,18.4,-,N/A,,Mostly Cloudy,30,2013-04-11 22:55:00
6:15 PM,32.0,26.6,80,29.85,5.0,ENE,18.4,25.3,N/A,Rain,Light Rain,70,2013-04-11 23:15:00
6:35 PM,32.0,32.0,100,29.86,2.5,North,-9999.0,-,0.01,Snow,Light Snow,0,2013-04-11 23:35:00
6:55 PM,30.2,30.2,100,29.87,2.5,North,-9999.0,-,0.03,Snow,Light Snow,0,2013-04-11 23:55:00
7:15 PM,28.4,28.4,100,29.87,2.0,NE,11.5,-,0.01,Snow,Light Snow,50,2013-04-12 00:15:00
7:35 PM,28.4,28.4,100,29.88,1.5,ENE,12.7,18.4,0.05,Snow,Light Snow,60,2013-04-12 00:35:00
7:55 PM,28.4,28.4,100,29.88,1.5,NE,11.5,-,0.09,Snow,Light Snow,50,2013-04-12 00:55:00
8:15 PM,28.4,28.4,100,29.88,3.0,ENE,9.2,-,N/A,Snow,Light Snow,70,2013-04-12 01:15:00
8:35 PM,28.4,28.4,100,29.88,3.0,NE,10.4,-,N/A,Snow,Light Snow,40,2013-04-12 01:35:00
8:55 PM,26.6,26.6,100,29.89,3.0,ENE,9.2,-,0.02,Snow,Light Snow,60,2013-04-12 01:55:00
9:15 PM,26.6,26.6,100,29.89,3.0,ENE,12.7,-,N/A,Snow,Light Snow,60,2013-04-12 02:15:00
9:35 PM,26.6,26.6,100,29.90,2.0,NE,8.1,-,0.05,Snow,Light Snow,50,2013-04-12 02:35:00
9:55 PM,26.6,26.6,100,29.90,1.8,NE,5.8,-,0.13,Snow,Light Snow,40,2013-04-12 02:55:00
10:15 PM,26.6,26.6,100,29.90,1.8,ENE,10.4,-,0.04,Snow,Light Snow,60,2013-04-12 03:15:00
10:35 PM,26.6,26.6,100,29.91,3.0,ENE,5.8,-,0.08,Snow,Light Snow,60,2013-04-12 03:35:00
10:55 PM,26.6,26.6,100,29.90,3.0,NE,8.1,-,0.10,Snow,Light Snow,40,2013-04-12 03:55:00
11:15 PM,24.8,24.8,100,29.90,6.0,NE,4.6,-,0.01,Snow,Light Snow,40,2013-04-12 04:15:00
11:35 PM,24.8,24.8,100,29.90,4.0,NNE,3.5,-,0.03,Snow,Light Snow,20,2013-04-12 04:35:00
11:55 PM,24.8,24.8,100,29.90,7.0,North,5.8,-,0.03,,Overcast,350,2013-04-12 04:55:00